Hlavní strana
METAR-TAF:

METAR-TAF

Letiště :

Aiken, Jižní Karolína, Spojené státy americké

zeměpisná šířka: 33-38-58N, zeměpisná délka: 081-41-06W, výška: 161 m

Aktuální stav počasí

Zpráva byla vytvořena před 16 minutami, v 18:15 UTC
Západní vítr 12 kt
Teplota 10°C
Vlhkost vzduchu 34%
Tlak 1020 hPa
Viditelnost: 16.1 km
Jasno

METAR: KAIK 271815Z AUTO 27012KT 10SM CLR 10/M05 A3011 RMK AO2 T01011047

Čas: 13:31 (18:31 UTC)


TAF: chybějící

Stav a předpovědi počasí z více než 4 000 letišť (zprávy METAR a TAF).

Červené a žluté tečky na mapě představují dostupné meteorologické stanice.

Když kurzor umístíte na tečku, zobrazí se název stanice.

Pak kliknutím zobrazíte stav a předpověď počasí.

Chcete-li změnit mapu, kliknutím na zelené tlačítko se znaménkem +mapu přiblížíte, kliknutím na zelené tlačítko se znaménkem – mapu oddálíte a kliknutím na zelené šipky přejdete na sousední mapy.


METAR-TAF: